Kokomo, IN

3:03 PM EST on December 11, 2017 (GMT -0500)
Kokomo Municipal

Weather History for KOKK - May, 2014

Change the Weather History Date:

Tuesday, May 6, 2014

  Actual Average (KGUS) Record (KGUS)
Temperature  
Mean Temperature 55 °F -  
Max Temperature 71 °F 68 °F 87 °F (2004)
Min Temperature 39 °F 50 °F 41 °F (2016)
Degree Days  
Heating Degree Days 10    
Growing Degree Days 5 (Base 50)    
Moisture  
Dew Point 37 °F    
Average Humidity 49    
Maximum Humidity 87    
Minimum Humidity 26    
Precipitation  
Precipitation 0.00 in - - ()
Sea Level Pressure  
Sea Level Pressure 29.94 in    
Wind  
Wind Speed 14 mph (East)    
Max Wind Speed 25 mph    
Max Gust Speed 29 mph    
Visibility 10 miles    
Events      
Averages and records for this station are not official NWS values.
T = Trace of Precipitation, MM = Missing Value Source: NWS Daily Summary

Daily Weather History Graph

Daily Weather History Graph

Search for Another Location

Airport or City:

Trip Planner

Search our weather history database for the weather conditions in past years. The results will help you decide how hot, cold, wet, or windy it might be!

Date:

Astronomy

May. 06, 2014 Rise Set
Actual Time 5:37 AM CDT 7:45 PM CDT
Civil Twilight 5:07 AM CDT 8:15 PM CDT
Nautical Twilight 4:30 AM CDT 8:52 PM CDT
Astronomical Twilight 3:50 AM CDT 9:32 PM CDT
Moon 11:53 AM CDT (5/6) 1:03 AM CDT (5/6)
Length of Visible Light 15h 08m
Length of Day
14h 08m
Waxing Crescent, 46% of the Moon is Illuminated
May 6
Waxing Crescent
May 6
First Quarter
May 14
Full
May 21
Last Quarter
May 28
New

Hourly Weather History & Observations

Time (CDT) Temp. Windchill Dew Point Humidity Pressure Visibility Wind Dir Wind Speed Gust Speed Precip Events Conditions
12:15 AM 48.2 °F - 37.4 °F 66% 29.95 in 10.0 mi ENE 11.5 mph - N/A   Clear
12:35 AM 46.4 °F 41.9 °F 37.4 °F 71% 29.96 in 10.0 mi ENE 9.2 mph - N/A   Clear
12:55 AM 46.4 °F 40.4 °F 37.4 °F 71% 29.96 in 10.0 mi ENE 13.8 mph - N/A   Clear
1:15 AM 46.4 °F 41.1 °F 35.6 °F 66% 29.96 in 10.0 mi ENE 11.5 mph - N/A   Clear
1:35 AM 44.6 °F 40.2 °F 37.4 °F 76% 29.96 in 10.0 mi East 8.1 mph - N/A   Clear
1:55 AM 44.6 °F 40.2 °F 35.6 °F 71% 29.96 in 10.0 mi East 8.1 mph - N/A   Clear
2:15 AM 44.6 °F 40.2 °F 37.4 °F 76% 29.95 in 10.0 mi East 8.1 mph - N/A   Clear
2:35 AM 42.8 °F 38.0 °F 35.6 °F 76% 29.96 in 10.0 mi East 8.1 mph - N/A   Clear
2:55 AM 42.8 °F 37.5 °F 35.6 °F 76% 29.95 in 10.0 mi East 9.2 mph - N/A   Clear
3:35 AM 42.8 °F 38.6 °F 33.8 °F 70% 29.96 in 10.0 mi East 6.9 mph - N/A   Clear
3:55 AM 42.8 °F 38.6 °F 35.6 °F 76% 29.96 in 10.0 mi East 6.9 mph - N/A   Clear
4:15 AM 41.0 °F 35.8 °F 33.8 °F 76% 29.96 in 10.0 mi ENE 8.1 mph - N/A   Clear
4:35 AM 39.2 °F 33.0 °F 35.6 °F 87% 29.96 in 10.0 mi ENE 9.2 mph - N/A   Clear
4:55 AM 39.2 °F 33.0 °F 35.6 °F 87% 29.97 in 10.0 mi ENE 9.2 mph - N/A   Clear
5:15 AM 41.0 °F 34.3 °F 35.6 °F 81% 29.97 in 10.0 mi East 11.5 mph - N/A   Clear
5:35 AM 41.0 °F 34.3 °F 35.6 °F 81% 29.98 in 10.0 mi ENE 11.5 mph - N/A   Clear
6:55 AM 44.6 °F 37.4 °F 35.6 °F 71% 30.00 in 10.0 mi East 16.1 mph - N/A   Clear
7:15 AM 46.4 °F 39.8 °F 35.6 °F 66% 30.00 in 10.0 mi East 16.1 mph - N/A   Clear
7:35 AM 46.4 °F 40.1 °F 35.6 °F 66% 29.99 in 10.0 mi East 15.0 mph 21.9 mph N/A   Clear
7:55 AM 48.2 °F - 35.6 °F 62% 29.99 in 10.0 mi East 17.3 mph - N/A   Clear
8:15 AM 50.0 °F - 35.6 °F 58% 30.00 in 10.0 mi East 16.1 mph - N/A   Clear
9:15 AM 55.4 °F - 37.4 °F 51% 29.99 in 10.0 mi East 21.9 mph 26.5 mph N/A   Clear
9:35 AM 57.2 °F - 37.4 °F 48% 29.99 in 10.0 mi East 20.7 mph 25.3 mph N/A   Clear
9:55 AM 59.0 °F - 37.4 °F 45% 29.99 in 10.0 mi East 21.9 mph 27.6 mph N/A   Clear
10:15 AM 60.8 °F - 35.6 °F 39% 29.98 in 10.0 mi East 19.6 mph - N/A   Clear
10:35 AM 60.8 °F - 35.6 °F 39% 29.98 in 10.0 mi ESE 19.6 mph 26.5 mph N/A   Clear
10:55 AM 62.6 °F - 35.6 °F 37% 29.98 in 10.0 mi East 19.6 mph 27.6 mph N/A   Clear
11:15 AM 62.6 °F - 35.6 °F 37% 29.98 in 10.0 mi East 19.6 mph 25.3 mph N/A   Clear
11:35 AM 64.4 °F - 37.4 °F 37% 29.97 in 10.0 mi ESE 19.6 mph 26.5 mph N/A   Clear
11:55 AM 64.4 °F - 35.6 °F 34% 29.97 in 10.0 mi East 16.1 mph 26.5 mph N/A   Clear
12:15 PM 66.2 °F - 35.6 °F 32% 29.97 in 10.0 mi ESE 19.6 mph 26.5 mph N/A   Clear
12:35 PM 66.2 °F - 37.4 °F 35% 29.97 in 10.0 mi ESE 17.3 mph 23.0 mph N/A   Clear
12:55 PM 66.2 °F - 37.4 °F 35% 29.96 in 10.0 mi East 17.3 mph 25.3 mph N/A   Clear
1:15 PM 68.0 °F - 33.8 °F 28% 29.95 in 10.0 mi ESE 20.7 mph - N/A   Clear
1:35 PM 68.0 °F - 32.0 °F 26% 29.95 in 10.0 mi East 19.6 mph 24.2 mph N/A   Clear
1:55 PM 69.8 °F - 37.4 °F 31% 29.94 in 10.0 mi ESE 19.6 mph 27.6 mph N/A   Clear
2:15 PM 69.8 °F - 37.4 °F 31% 29.93 in 10.0 mi ESE 19.6 mph 24.2 mph N/A   Clear
2:35 PM 69.8 °F - 37.4 °F 31% 29.92 in 10.0 mi East 18.4 mph 24.2 mph N/A   Clear
2:55 PM 69.8 °F - 37.4 °F 31% 29.92 in 10.0 mi East 15.0 mph 28.8 mph N/A   Clear
3:15 PM 71.6 °F - 39.2 °F 31% 29.92 in 10.0 mi ESE 17.3 mph 24.2 mph N/A   Clear
3:35 PM 71.6 °F - 39.2 °F 31% 29.91 in 10.0 mi East 17.3 mph - N/A   Clear
3:55 PM 71.6 °F - 39.2 °F 31% 29.91 in 10.0 mi East 18.4 mph 26.5 mph N/A   Clear
4:15 PM 71.6 °F - 41.0 °F 33% 29.91 in 10.0 mi ESE 18.4 mph - N/A   Clear
4:35 PM 71.6 °F - 39.2 °F 31% 29.91 in 10.0 mi East 17.3 mph 26.5 mph N/A   Clear
4:55 PM 71.6 °F - 41.0 °F 33% 29.90 in 10.0 mi ESE 19.6 mph - N/A   Clear
5:15 PM 69.8 °F - 41.0 °F 35% 29.91 in 10.0 mi ESE 17.3 mph 23.0 mph N/A   Clear
5:35 PM 69.8 °F - 41.0 °F 35% 29.90 in 10.0 mi East 17.3 mph 21.9 mph N/A   Clear
5:55 PM 69.8 °F - 41.0 °F 35% 29.90 in 10.0 mi ESE 19.6 mph 25.3 mph N/A   Clear
6:15 PM 69.8 °F - 39.2 °F 33% 29.90 in 10.0 mi East 17.3 mph 24.2 mph N/A   Clear
6:35 PM 68.0 °F - 39.2 °F 35% 29.90 in 10.0 mi East 17.3 mph - N/A   Clear
6:55 PM 66.2 °F - 39.2 °F 37% 29.91 in 10.0 mi East 17.3 mph - N/A   Clear
7:15 PM 66.2 °F - 39.2 °F 37% 29.92 in 10.0 mi East 15.0 mph - N/A   Partly Cloudy
7:35 PM 66.2 °F - 39.2 °F 37% 29.89 in 10.0 mi East 20.7 mph - N/A   Partly Cloudy
7:55 PM 64.4 °F - 39.2 °F 40% 29.84 in 10.0 mi East 25.3 mph 28.8 mph N/A   Clear
8:15 PM 64.4 °F - 39.2 °F 40% 29.91 in 10.0 mi East 13.8 mph 17.3 mph N/A   Clear
8:35 PM 62.6 °F - 39.2 °F 42% 29.93 in 10.0 mi East 13.8 mph - N/A   Clear
8:55 PM 62.6 °F - 39.2 °F 42% 29.93 in 10.0 mi East 15.0 mph 20.7 mph N/A   Clear
9:15 PM 60.8 °F - 39.2 °F 45% 29.93 in 10.0 mi East 17.3 mph - N/A   Clear
9:35 PM 60.8 °F - 39.2 °F 45% 29.92 in 10.0 mi East 18.4 mph - N/A   Clear
9:55 PM 59.0 °F - 39.2 °F 48% 29.92 in 10.0 mi East 18.4 mph 25.3 mph N/A   Clear
10:15 PM 57.2 °F - 37.4 °F 48% 29.92 in 10.0 mi East 17.3 mph 23.0 mph N/A   Clear
10:35 PM 57.2 °F - 37.4 °F 48% 29.93 in 10.0 mi East 17.3 mph - N/A   Clear
10:55 PM 55.4 °F - 37.4 °F 51% 29.93 in 10.0 mi East 13.8 mph - N/A   Clear
11:15 PM 55.4 °F - 37.4 °F 51% 29.93 in 10.0 mi East 15.0 mph - N/A   Clear
11:35 PM 55.4 °F - 35.6 °F 47% 29.93 in 10.0 mi East 13.8 mph - N/A   Clear
11:55 PM 53.6 °F - 35.6 °F 51% 29.92 in 10.0 mi East 16.1 mph - N/A   Clear